Language: 


Des rapports , des résumés tant et plus, au choix de chacun....


Données Historiques de Météogheer
Journalier Rapport pour Janvier 6, 2018 Unitée:  Impériale    Métrique   Les deux
Suivant Jour »
Journalier Hebdomadaire Mensuel Annuel Sur mesure
  Max: Min: Moyenne:
Température: 45.1 °F 37.9 °F 42.1 °F
Point de rosée: 44.6 °F 37.4 °F 42.1 °F
Humidité: 98% 93% 97%
Vent: 17mph 0mph 3.8mph
Rafales: 17.2mph - -
Vent- - ENE
Pression: 30 in 29.5 in -
Pluie: 0.01 in    
Historical Graphs
 
 
Données tabulaires pour Janvier 6, 2018
Heure Température Point de rosée Pression Vent Vent Rafales Humidité Pluie Taux (Horaire) Conditions
00:03 42.3 °F 41 °F 29.6 in South 2.5 mph 5.8 mph 95% 0 in
00:08 42.1 °F 41 °F 29.6 in SSW 2.5 mph 5.6 mph 95% 0 in
00:09 42.1 °F 41 °F 29.6 in Calm   4.9 mph 95% 0 in
00:14 41.9 °F 41 °F 29.6 in Calm   5.6 mph 95% 0 in
00:17 41.7 °F 41 °F 29.6 in Calm   5.6 mph 95% 0 in
00:22 41.5 °F 41 °F 29.6 in South 5.8 mph 5.8 mph 95% 0 in
00:28 41.4 °F 41 °F 29.6 in Calm   6 mph 95% 0 in
00:30 41.4 °F 41 °F 29.6 in SW 4 mph 6 mph 95% 0 in
00:33 41.4 °F 41 °F 29.6 in SSW 3.8 mph 6.5 mph 96% 0 in
00:38 41.2 °F 41 °F 29.6 in SSW 1.6 mph 6.5 mph 96% 0 in
00:43 41.2 °F 41 °F 29.5 in Calm   5.4 mph 96% 0 in
00:48 41 °F 41 °F 29.5 in SSW 4.3 mph 4.7 mph 96% 0 in
00:53 41 °F 41 °F 29.5 in Calm   6 mph 96% 0 in
00:58 41 °F 41 °F 29.6 in Calm   6.5 mph 96% 0 in
01:03 41 °F 41 °F 29.6 in SSW 4.3 mph 6.5 mph 96% 0 in
01:04 41 °F 41 °F 29.6 in SW 6.3 mph 6.3 mph 96% 0 in
01:05 41 °F 41 °F 29.6 in SSW 5.4 mph 6.3 mph 96% 0 in
01:11 41 °F 41 °F 29.6 in SSW 3.8 mph 6.3 mph 96% 0 in
01:16 41 °F 41 °F 29.6 in Calm   5.8 mph 96% 0 in
01:18 41 °F 41 °F 29.6 in SSW 4.3 mph 5.8 mph 96% 0 in
01:23 41 °F 41 °F 29.6 in Calm   5.8 mph 96% 0 in
01:28 40.8 °F 41 °F 29.6 in Calm   5.4 mph 96% 0 in
01:31 40.6 °F 39.2 °F 29.6 in Calm   4.3 mph 96% 0 in
01:36 40.6 °F 39.2 °F 29.6 in Calm   3.8 mph 96% 0 in
01:41 40.5 °F 39.2 °F 29.6 in Calm   3.8 mph 96% 0 in
01:46 40.5 °F 39.2 °F 29.6 in Calm   4.7 mph 96% 0 in
01:51 40.5 °F 39.2 °F 29.6 in Calm   4.7 mph 96% 0 in
01:56 40.5 °F 39.2 °F 29.6 in Calm   3.6 mph 96% 0 in
02:00 40.3 °F 39.2 °F 29.6 in Calm   2.9 mph 96% 0 in
02:04 40.3 °F 39.2 °F 29.6 in Calm   2.9 mph 96% 0 in
02:07 40.3 °F 39.2 °F 29.6 in Calm   2.9 mph 96% 0 in
02:12 40.3 °F 39.2 °F 29.6 in SSW 0.9 mph 2.5 mph 96% 0 in
02:13 40.3 °F 39.2 °F 29.6 in Calm   2.5 mph 96% 0 in
02:14 40.3 °F 39.2 °F 29.6 in Calm   2.5 mph 96% 0 in
02:19 39.9 °F 39.2 °F 29.6 in Calm   2.5 mph 96% 0 in
02:24 39.9 °F 39.2 °F 29.6 in Calm     96% 0 in
02:26 39.7 °F 39.2 °F 29.6 in Calm     96% 0 in
02:31 39.6 °F 39.2 °F 29.6 in Calm     96% 0 in
02:34 39.4 °F 39.2 °F 29.6 in Calm     96% 0 in
02:39 39.4 °F 39.2 °F 29.6 in Calm     96% 0 in
02:40 39.4 °F 39.2 °F 29.6 in Calm     96% 0 in
02:46 39.2 °F 39.2 °F 29.6 in Calm     96% 0 in
02:47 39.2 °F 39.2 °F 29.6 in Calm     96% 0 in
02:52 39 °F 39.2 °F 29.6 in Calm     96% 0 in
02:54 38.8 °F 37.4 °F 29.6 in Calm     96% 0 in
02:59 38.8 °F 37.4 °F 29.6 in Calm     97% 0 in
03:04 38.7 °F 37.4 °F 29.6 in Calm     97% 0 in
03:09 38.3 °F 37.4 °F 29.6 in Calm     97% 0 in
03:14 38.1 °F 37.4 °F 29.6 in Calm     96% 0 in
03:25 37.9 °F 37.4 °F 29.6 in Calm     97% 0 in
03:30 38.1 °F 37.4 °F 29.6 in Calm     97% 0 in
03:34 38.3 °F 39.2 °F 29.6 in Calm     98% 0 in
03:39 38.7 °F 39.2 °F 29.6 in Calm     98% 0 in
03:44 38.7 °F 39.2 °F 29.6 in Calm     98% 0 in
03:49 38.8 °F 39.2 °F 29.6 in Calm   1.1 mph 98% 0 in
03:53 39 °F 39.2 °F 29.6 in Calm   1.1 mph 98% 0 in
03:58 39 °F 39.2 °F 29.6 in Calm   0.9 mph 98% 0 in
04:03 38.8 °F 39.2 °F 29.6 in Calm     98% 0 in
04:08 38.8 °F 39.2 °F 29.6 in Calm     98% 0 in
04:13 38.8 °F 39.2 °F 29.6 in Calm   0.9 mph 98% 0 in
04:16 38.8 °F 39.2 °F 29.6 in Calm   0.9 mph 98% 0 in
04:26 38.8 °F 39.2 °F 29.6 in Calm     98% 0 in
04:28 38.8 °F 39.2 °F 29.6 in Calm     98% 0 in
04:33 38.7 °F 39.2 °F 29.6 in Calm     98% 0 in
04:39 38.7 °F 39.2 °F 29.6 in Calm     98% 0 in
04:44 38.7 °F 39.2 °F 29.6 in Calm     98% 0 in
04:49 38.7 °F 39.2 °F 29.6 in Calm     98% 0 in
04:54 38.5 °F 39.2 °F 29.6 in Calm     98% 0 in
05:00 38.7 °F 39.2 °F 29.6 in Calm   1.3 mph 98% 0 in
05:05 38.7 °F 39.2 °F 29.6 in Calm   1.3 mph 98% 0 in
05:10 38.8 °F 39.2 °F 29.6 in Calm   1.1 mph 98% 0 in
05:15 39 °F 39.2 °F 29.6 in Calm   2.5 mph 98% 0 in
05:20 39.2 °F 39.2 °F 29.6 in Calm   2.5 mph 98% 0 in
05:25 39.2 °F 39.2 °F 29.6 in Calm   2.7 mph 98% 0 in
05:30 39.4 °F 39.2 °F 29.6 in Calm   3.4 mph 98% 0 in
05:35 39.6 °F 39.2 °F 29.6 in Calm   3.4 mph 98% 0 in
05:36 39.6 °F 39.2 °F 29.6 in Calm   3.4 mph 98% 0 in
05:41 39.7 °F 39.2 °F 29.6 in SSE 0.9 mph 2.9 mph 98% 0 in
05:46 39.7 °F 39.2 °F 29.6 in SSE 2.9 mph 2.9 mph 98% 0 in
05:51 39.9 °F 39.2 °F 29.6 in Calm   2.9 mph 98% 0 in
05:57 39.9 °F 39.2 °F 29.6 in Calm     98% 0 in
06:02 40.1 °F 41 °F 29.6 in Calm     98% 0 in
06:07 40.1 °F 41 °F 29.6 in Calm     98% 0 in
06:08 40.1 °F 41 °F 29.6 in Calm     98% 0 in
06:13 40.3 °F 41 °F 29.6 in Calm     98% 0 in
06:18 40.3 °F 41 °F 29.6 in Calm     98% 0 in
06:23 40.3 °F 41 °F 29.6 in Calm     98% 0 in
06:28 40.3 °F 41 °F 29.6 in Calm     98% 0 in
06:32 40.3 °F 41 °F 29.6 in Calm     98% 0 in
06:37 40.5 °F 41 °F 29.6 in Calm     98% 0 in
06:42 40.5 °F 41 °F 29.6 in Calm     98% 0 in
06:47 40.5 °F 41 °F 29.6 in Calm     98% 0 in
06:52 40.6 °F 41 °F 29.6 in Calm     98% 0 in
06:57 40.6 °F 41 °F 29.6 in Calm     98% 0 in
06:59 40.6 °F 41 °F 29.6 in Calm     98% 0 in
07:04 40.6 °F 41 °F 29.6 in Calm     98% 0 in
07:09 40.6 °F 41 °F 29.6 in Calm     98% 0 in
07:10 40.6 °F 41 °F 29.6 in Calm     98% 0 in
07:14 40.6 °F 41 °F 29.6 in Calm     98% 0 in
07:19 40.6 °F 41 °F 29.6 in Calm     98% 0 in
07:22 40.8 °F 41 °F 29.6 in Calm     98% 0 in
07:27 40.8 °F 41 °F 29.6 in Calm     98% 0 in
07:32 40.8 °F 41 °F 29.6 in Calm     98% 0 in
07:37 40.8 °F 41 °F 29.6 in Calm     98% 0 in
07:39 40.8 °F 41 °F 29.6 in Calm     98% 0 in
07:45 40.8 °F 41 °F 29.6 in Calm     98% 0 in
07:50 40.8 °F 41 °F 29.6 in Calm     98% 0 in
07:52 41 °F 41 °F 29.6 in Calm     98% 0 in
07:57 41 °F 41 °F 29.6 in Calm     98% 0 in
08:01 41 °F 41 °F 29.6 in Calm     98% 0 in
08:07 41 °F 41 °F 29.6 in Calm     98% 0 in
08:12 41 °F 41 °F 29.6 in Calm     98% 0 in
08:17 41 °F 41 °F 29.6 in Calm     98% 0 in
08:18 41 °F 41 °F 29.6 in Calm     98% 0 in
08:23 41 °F 41 °F 29.6 in Calm     98% 0 in
08:28 41 °F 41 °F 29.6 in Calm     98% 0 in
08:33 40.8 °F 41 °F 29.6 in Calm     98% 0 in
08:38 40.8 °F 41 °F 29.6 in Calm     98% 0 in
08:43 40.6 °F 41 °F 29.6 in Calm     98% 0.01 in
08:49 40.6 °F 41 °F 29.6 in Calm     98% 0.01 in
08:54 40.6 °F 41 °F 29.6 in Calm     98% 0.01 in
08:59 40.5 °F 41 °F 29.6 in Calm     98% 0.01 in
09:04 40.5 °F 41 °F 29.6 in Calm     98% 0.01 in
09:09 40.5 °F 41 °F 29.6 in Calm     98% 0.01 in
09:14 40.5 °F 41 °F 29.7 in Calm     98% 0.01 in
09:19 40.5 °F 41 °F 29.7 in Calm     98% 0.01 in
09:24 40.5 °F 41 °F 29.7 in Calm     98% 0.01 in
09:30 40.5 °F 41 °F 29.7 in Calm   2.9 mph 98% 0.01 in
09:35 40.5 °F 41 °F 29.7 in Calm   2.9 mph 98% 0.01 in
09:40 40.5 °F 41 °F 29.7 in NNE 3.8 mph 3.8 mph 98% 0.01 in
09:45 40.5 °F 41 °F 29.7 in Calm   3.8 mph 98% 0 in
09:50 40.5 °F 41 °F 29.7 in Calm   3.8 mph 98% 0 in
09:55 40.6 °F 41 °F 29.7 in Calm   3.1 mph 98% 0 in
09:58 40.6 °F 41 °F 29.7 in Calm   3.1 mph 98% 0 in
10:03 40.6 °F 41 °F 29.7 in Calm   3.1 mph 98% 0 in
10:06 40.8 °F 41 °F 29.7 in Calm     98% 0 in
10:11 41 °F 41 °F 29.7 in Calm     98% 0 in
10:16 41.2 °F 41 °F 29.7 in Calm     98% 0 in
10:21 41.2 °F 41 °F 29.7 in NE 1.3 mph 2.7 mph 98% 0 in
10:26 41.4 °F 41 °F 29.7 in Calm   3.4 mph 98% 0 in
10:30 41.5 °F 42.8 °F 29.7 in Calm   3.4 mph 98% 0 in
10:35 41.7 °F 42.8 °F 29.7 in Calm   2.7 mph 98% 0 in
10:36 41.7 °F 42.8 °F 29.7 in Calm   2.7 mph 98% 0 in
10:41 41.9 °F 42.8 °F 29.7 in NNE 1.1 mph 3.4 mph 98% 0 in
10:46 42.1 °F 42.8 °F 29.7 in Calm   3.4 mph 98% 0 in
10:51 42.3 °F 42.8 °F 29.7 in Calm   3.4 mph 98% 0 in
10:52 42.3 °F 42.8 °F 29.7 in NNE 2.7 mph 3.4 mph 98% 0 in
10:57 42.3 °F 42.8 °F 29.7 in NE 3.8 mph 4.9 mph 98% 0 in
11:00 42.3 °F 42.8 °F 29.7 in NNE 3.1 mph 4.9 mph 98% 0 in
11:06 42.4 °F 42.8 °F 29.7 in NE 3.6 mph 4.7 mph 98% 0 in
11:07 42.4 °F 42.8 °F 29.7 in NE 5.6 mph 5.6 mph 98% 0 in
11:12 42.4 °F 42.8 °F 29.7 in NE 4 mph 5.8 mph 98% 0 in
11:17 42.4 °F 42.8 °F 29.7 in Calm   5.8 mph 98% 0 in
11:18 42.4 °F 42.8 °F 29.7 in Calm   5.8 mph 98% 0 in
11:24 42.6 °F 42.8 °F 29.7 in NE 2.9 mph 4.9 mph 98% 0 in
11:29 42.8 °F 42.8 °F 29.7 in Calm   4.7 mph 98% 0 in
11:34 43 °F 42.8 °F 29.7 in NNE 4.3 mph 4.5 mph 98% 0 in
11:39 43 °F 42.8 °F 29.7 in East 3.6 mph 4.3 mph 98% 0 in
11:44 43.2 °F 42.8 °F 29.7 in NNE 4.3 mph 4.3 mph 98% 0 in
11:49 43.3 °F 42.8 °F 29.7 in NE 3.8 mph 4.3 mph 98% 0 in
11:54 43.3 °F 42.8 °F 29.7 in Calm   3.8 mph 98% 0 in
11:56 43.5 °F 42.8 °F 29.7 in Calm   3.8 mph 98% 0 in
12:01 43.5 °F 42.8 °F 29.7 in Calm   5.4 mph 98% 0 in
12:07 43.5 °F 42.8 °F 29.7 in NE 5.6 mph 5.6 mph 98% 0 in
12:12 43.5 °F 42.8 °F 29.7 in ENE 4.3 mph 6 mph 98% 0 in
12:17 43.7 °F 44.6 °F 29.7 in Calm   6 mph 98% 0 in
12:22 43.7 °F 44.6 °F 29.7 in East 5.4 mph 5.4 mph 98% 0 in
12:27 43.9 °F 44.6 °F 29.7 in NE 3.6 mph 5.6 mph 98% 0 in
12:32 43.9 °F 44.6 °F 29.7 in NE 4.9 mph 6.3 mph 98% 0 in
12:37 44.1 °F 44.6 °F 29.7 in NNE 4.3 mph 6.3 mph 98% 0 in
12:42 44.1 °F 44.6 °F 29.7 in NE 4.9 mph 6.3 mph 98% 0 in
12:43 44.1 °F 44.6 °F 29.7 in NNE 5.4 mph 6.3 mph 98% 0 in
12:48 44.1 °F 44.6 °F 29.7 in NE 6 mph 7.2 mph 98% 0 in
12:54 43.9 °F 44.6 °F 29.7 in NE 4 mph 7.2 mph 98% 0 in
12:55 43.9 °F 44.6 °F 29.7 in NNE 5.6 mph 7.2 mph 98% 0 in
13:00 43.9 °F 44.6 °F 29.7 in North 3.4 mph 6.3 mph 98% 0 in
13:06 44.1 °F 44.6 °F 29.7 in NNE 3.1 mph 6 mph 98% 0 in
13:11 44.1 °F 44.6 °F 29.7 in NE 4.3 mph 6 mph 98% 0 in
13:21 43.9 °F 44.6 °F 29.7 in NNW 3.1 mph 7.2 mph 98% 0 in
13:27 44.1 °F 44.6 °F 29.7 in North 6.5 mph 7.2 mph 98% 0 in
13:29 44.1 °F 44.6 °F 29.7 in NNE 3.4 mph 7.2 mph 98% 0 in
13:31 44.1 °F 44.6 °F 29.7 in North 3.6 mph 7.4 mph 98% 0 in
13:36 44.1 °F 44.6 °F 29.7 in ENE 2 mph 7.4 mph 98% 0 in
13:41 44.1 °F 44.6 °F 29.7 in NE 1.3 mph 6.5 mph 98% 0 in
13:44 44.1 °F 44.6 °F 29.7 in NE 6.5 mph 6.5 mph 98% 0 in
13:49 44.2 °F 44.6 °F 29.7 in Calm   6.5 mph 98% 0 in
13:54 44.2 °F 44.6 °F 29.7 in NE 5.6 mph 7.8 mph 98% 0 in
13:56 44.2 °F 44.6 °F 29.7 in NNE 5.8 mph 7.8 mph 98% 0 in
14:01 44.2 °F 44.6 °F 29.7 in NE 5.4 mph 6.5 mph 98% 0 in
14:02 44.2 °F 44.6 °F 29.7 in NE 6 mph 6.5 mph 98% 0 in
14:07 44.2 °F 44.6 °F 29.7 in NNE 4 mph 6.5 mph 98% 0 in
14:12 44.2 °F 44.6 °F 29.7 in North 4.3 mph 6.5 mph 98% 0 in
14:17 44.4 °F 44.6 °F 29.7 in NNE 4.9 mph 6.3 mph 98% 0 in
14:19 44.4 °F 44.6 °F 29.7 in NNE 4.3 mph 6.3 mph 98% 0 in
14:25 44.6 °F 44.6 °F 29.7 in NE 6 mph 6 mph 98% 0 in
14:30 44.6 °F 44.6 °F 29.8 in NE 4.3 mph 7.4 mph 98% 0 in
14:35 44.6 °F 44.6 °F 29.8 in NNE 5.6 mph 7.4 mph 98% 0 in
14:40 44.8 °F 44.6 °F 29.8 in NE 1.6 mph 8.1 mph 98% 0 in
14:45 44.8 °F 44.6 °F 29.8 in NNE 5.4 mph 8.1 mph 98% 0 in
14:51 44.8 °F 44.6 °F 29.8 in NE 6.5 mph 7.2 mph 98% 0 in
14:56 45 °F 44.6 °F 29.8 in NNE 6.5 mph 8.5 mph 98% 0 in
15:01 45 °F 44.6 °F 29.8 in NNE 8.5 mph 8.7 mph 98% 0 in
15:06 45 °F 44.6 °F 29.8 in NE 6.5 mph 8.7 mph 98% 0 in
15:11 45.1 °F 44.6 °F 29.8 in ENE 6 mph 8.5 mph 98% 0 in
15:15 45.1 °F 44.6 °F 29.8 in NE 6.7 mph 7.8 mph 98% 0 in
15:21 45 °F 44.6 °F 29.8 in NE 6.3 mph 8.5 mph 98% 0 in
15:26 45 °F 44.6 °F 29.8 in ENE 6.9 mph 8.5 mph 98% 0 in
15:31 45 °F 44.6 °F 29.8 in NE 5.4 mph 7.8 mph 98% 0 in
15:36 45 °F 44.6 °F 29.8 in NE 5.8 mph 8.1 mph 98% 0 in
15:41 45 °F 44.6 °F 29.8 in NNE 7.2 mph 8.5 mph 98% 0 in
15:46 45 °F 44.6 °F 29.8 in NE 6 mph 8.5 mph 98% 0 in
15:49 45 °F 44.6 °F 29.8 in NNE 6.3 mph 7.6 mph 98% 0 in
15:54 44.8 °F 44.6 °F 29.8 in NE 6.5 mph 7.8 mph 98% 0 in
15:59 44.8 °F 44.6 °F 29.8 in ENE 6.5 mph 8.5 mph 98% 0 in
16:01 44.8 °F 44.6 °F 29.8 in NNE 6.3 mph 8.5 mph 98% 0 in
16:06 44.8 °F 44.6 °F 29.8 in ENE 4.9 mph 8.5 mph 98% 0 in
16:11 44.8 °F 44.6 °F 29.8 in NE 4.3 mph 9.6 mph 98% 0 in
16:16 44.6 °F 44.6 °F 29.8 in NE 1.3 mph 9.6 mph 98% 0 in
16:21 44.6 °F 44.6 °F 29.8 in NE 6.3 mph 8.5 mph 98% 0 in
16:27 44.4 °F 44.6 °F 29.8 in NE 5.6 mph 7.8 mph 98% 0 in
16:32 44.4 °F 44.6 °F 29.8 in NE 5.8 mph 7.8 mph 98% 0 in
16:34 44.4 °F 44.6 °F 29.8 in NNE 6.5 mph 7.6 mph 98% 0 in
16:39 44.4 °F 44.6 °F 29.8 in NNE 6.3 mph 8.7 mph 98% 0 in
16:44 44.4 °F 44.6 °F 29.8 in NNE 6.7 mph 8.7 mph 98% 0 in
16:49 44.2 °F 44.6 °F 29.8 in NNE 4.9 mph 8.5 mph 98% 0 in
16:54 44.2 °F 44.6 °F 29.8 in NNE 5.8 mph 7.4 mph 98% 0 in
16:57 44.2 °F 44.6 °F 29.8 in ENE 5.6 mph 7.4 mph 98% 0 in
17:02 44.2 °F 44.6 °F 29.8 in NE 6.3 mph 7.6 mph 98% 0 in
17:07 44.2 °F 44.6 °F 29.8 in NE 7.4 mph 7.8 mph 98% 0 in
17:12 44.1 °F 44.6 °F 29.8 in NE 7.6 mph 8.5 mph 98% 0 in
17:14 44.1 °F 44.6 °F 29.8 in NE 7.8 mph 8.5 mph 98% 0 in
17:19 44.1 °F 44.6 °F 29.8 in NE 4 mph 8.5 mph 98% 0 in
17:21 44.1 °F 44.6 °F 29.8 in NE 5.8 mph 8.5 mph 98% 0 in
17:27 43.9 °F 44.6 °F 29.8 in NNE 6 mph 7.4 mph 98% 0 in
17:29 43.9 °F 44.6 °F 29.8 in NNE 6 mph 7.4 mph 98% 0 in
17:34 43.7 °F 44.6 °F 29.8 in NE 7.4 mph 8.7 mph 98% 0 in
17:39 43.7 °F 44.6 °F 29.8 in NNE 7.2 mph 8.7 mph 98% 0 in
17:44 43.7 °F 44.6 °F 29.8 in ENE 6 mph 8.7 mph 98% 0 in
17:49 43.7 °F 44.6 °F 29.8 in NE 6.9 mph 8.7 mph 98% 0 in
17:50 43.7 °F 44.6 °F 29.8 in NE 6.5 mph 8.7 mph 98% 0 in
17:55 43.7 °F 44.6 °F 29.8 in NE 5.8 mph 8.7 mph 98% 0 in
17:57 43.7 °F 44.6 °F 29.8 in NE 7.4 mph 8.7 mph 98% 0 in
18:03 43.7 °F 44.6 °F 29.8 in NE 7.4 mph 8.7 mph 98% 0 in
18:08 43.7 °F 44.6 °F 29.8 in NE 3.6 mph 8.5 mph 98% 0 in
18:13 43.7 °F 44.6 °F 29.9 in NE 6.3 mph 8.5 mph 98% 0 in
18:18 43.7 °F 44.6 °F 29.9 in NE 5.4 mph 8.5 mph 98% 0 in
18:24 43.7 °F 44.6 °F 29.9 in NNE 8.1 mph 8.5 mph 98% 0 in
18:29 43.7 °F 44.6 °F 29.9 in NE 7.6 mph 8.5 mph 98% 0 in
18:34 43.7 °F 44.6 °F 29.9 in NE 7.8 mph 8.7 mph 98% 0 in
18:36 43.7 °F 44.6 °F 29.9 in NE 8.5 mph 8.9 mph 98% 0 in
18:42 43.7 °F 44.6 °F 29.9 in NE 6.7 mph 9.2 mph 98% 0 in
18:47 43.5 °F 42.8 °F 29.9 in NNE 8.5 mph 9.2 mph 98% 0 in
18:52 43.5 °F 42.8 °F 29.9 in NNE 7.4 mph 8.7 mph 98% 0 in
18:54 43.5 °F 42.8 °F 29.9 in NE 7.4 mph 8.7 mph 98% 0 in
18:59 43.5 °F 42.8 °F 29.9 in NE 7.6 mph 8.7 mph 98% 0 in
19:02 43.5 °F 42.8 °F 29.9 in NE 5.4 mph 8.7 mph 98% 0 in
19:08 43.5 °F 42.8 °F 29.9 in NE 8.7 mph 8.7 mph 98% 0 in
19:13 43.5 °F 42.8 °F 29.9 in NNE 6.5 mph 8.7 mph 98% 0 in
19:18 43.5 °F 42.8 °F 29.9 in NE 7.6 mph 8.5 mph 98% 0 in
19:23 43.5 °F 42.8 °F 29.9 in ENE 4.3 mph 9.8 mph 98% 0 in
19:28 43.5 °F 42.8 °F 29.9 in NNE 10.3 mph 10.3 mph 98% 0 in
19:33 43.7 °F 44.6 °F 29.9 in East 8.7 mph 10.3 mph 98% 0 in
19:39 43.7 °F 44.6 °F 29.9 in NE 9.6 mph 11 mph 98% 0 in
19:49 43.7 °F 44.6 °F 29.9 in NE 8.7 mph 10.5 mph 98% 0 in
19:54 43.7 °F 44.6 °F 29.9 in NNE 7.4 mph 10.5 mph 98% 0 in
20:00 43.7 °F 44.6 °F 29.9 in NE 8.7 mph 10.5 mph 98% 0 in
20:05 43.7 °F 44.6 °F 29.9 in NE 8.5 mph 9.2 mph 98% 0 in
20:10 43.7 °F 44.6 °F 29.9 in NE 9.6 mph 9.6 mph 98% 0 in
20:15 43.7 °F 44.6 °F 29.9 in NNE 8.5 mph 11 mph 98% 0 in
20:20 43.7 °F 44.6 °F 29.9 in NE 10.1 mph 11 mph 98% 0 in
20:25 43.7 °F 44.6 °F 29.9 in NE 8.5 mph 11 mph 98% 0 in
20:26 43.7 °F 44.6 °F 29.9 in NE 8.5 mph 11 mph 98% 0 in
20:31 43.7 °F 44.6 °F 29.9 in NNE 10.1 mph 16.1 mph 98% 0 in
20:36 43.9 °F 44.6 °F 29.9 in NE 10.7 mph 16.1 mph 98% 0 in
20:41 43.9 °F 44.6 °F 29.9 in NE 6 mph 12.8 mph 98% 0 in
20:46 43.9 °F 44.6 °F 29.9 in NNE 7.8 mph 13 mph 98% 0 in
20:51 43.9 °F 42.8 °F 29.9 in NE 7.4 mph 13.6 mph 97% 0 in
20:55 43.9 °F 42.8 °F 29.9 in NNE 10.3 mph 13.6 mph 97% 0 in
21:00 43.9 °F 42.8 °F 29.9 in NE 10.1 mph 14.8 mph 97% 0 in
21:03 43.9 °F 42.8 °F 29.9 in NE 11 mph 14.8 mph 97% 0 in
21:08 43.9 °F 42.8 °F 29.9 in NE 9.6 mph 12.5 mph 97% 0 in
21:10 43.7 °F 42.8 °F 29.9 in NE 8.7 mph 12.5 mph 97% 0 in
21:12 43.7 °F 42.8 °F 29.9 in North 11 mph 12.3 mph 97% 0 in
21:18 43.7 °F 42.8 °F 29.9 in NE 15.7 mph 15.7 mph 96% 0 in
21:20 43.7 °F 42.8 °F 29.9 in NE 14.8 mph 15.7 mph 96% 0 in
21:25 43.7 °F 42.8 °F 29.9 in ENE 8.7 mph 15.7 mph 96% 0 in
21:29 43.5 °F 42.8 °F 29.9 in ENE 8.7 mph 14.8 mph 95% 0 in
21:34 43.5 °F 42.8 °F 29.9 in NNE 12.8 mph 16.1 mph 95% 0 in
21:38 43.5 °F 42.8 °F 29.9 in NE 8.7 mph 16.1 mph 95% 0 in
21:43 43.5 °F 42.8 °F 29.9 in NE 6.9 mph 16.1 mph 95% 0 in
21:49 43.5 °F 42.8 °F 29.9 in NNE 10.7 mph 13 mph 95% 0 in
21:54 43.3 °F 42.8 °F 29.9 in NE 8.1 mph 12.3 mph 96% 0 in
21:59 43.3 °F 42.8 °F 29.9 in ENE 8.1 mph 12.3 mph 96% 0 in
22:04 43.3 °F 42.8 °F 29.9 in NE 7.6 mph 12.3 mph 96% 0 in
22:09 43.3 °F 42.8 °F 29.9 in NNE 10.5 mph 12.5 mph 96% 0 in
22:14 43.3 °F 42.8 °F 29.9 in NE 8.7 mph 13.2 mph 95% 0 in
22:20 43.2 °F 42.8 °F 29.9 in NE 15.2 mph 15.2 mph 95% 0 in
22:25 43 °F 42.8 °F 29.9 in ENE 10.3 mph 15.2 mph 95% 0 in
22:31 43 °F 41 °F 29.9 in NNE 11 mph 15.2 mph 94% 0 in
22:33 43 °F 41 °F 29.9 in NE 8.7 mph 15.2 mph 94% 0 in
22:38 42.8 °F 41 °F 29.9 in NE 7.8 mph 14.8 mph 94% 0 in
22:43 42.8 °F 41 °F 30 in NE 11.9 mph 12.3 mph 94% 0 in
22:48 42.6 °F 41 °F 30 in NE 10.3 mph 13.6 mph 94% 0 in
22:54 42.6 °F 42.8 °F 30 in NNE 10.3 mph 13.6 mph 95% 0 in
22:59 42.6 °F 42.8 °F 30 in NE 9.2 mph 14.5 mph 95% 0 in
23:04 42.6 °F 42.8 °F 30 in NE 8.7 mph 14.5 mph 95% 0 in
23:09 42.6 °F 42.8 °F 30 in NE 10.3 mph 13.4 mph 95% 0 in
23:14 42.6 °F 42.8 °F 30 in NE 8.9 mph 13.2 mph 95% 0 in
23:19 42.6 °F 42.8 °F 30 in North 9.8 mph 13.2 mph 95% 0 in
23:24 42.4 °F 42.8 °F 30 in NE 10.5 mph 13.2 mph 95% 0 in
23:30 42.4 °F 42.8 °F 30 in NNE 8.5 mph 13.2 mph 95% 0 in
23:35 42.4 °F 41 °F 30 in NNE 8.5 mph 14.8 mph 94% 0 in
23:36 42.4 °F 41 °F 30 in NNE 8.5 mph 14.8 mph 94% 0 in
23:40 42.4 °F 41 °F 30 in North 12.8 mph 17.2 mph 94% 0 in
23:50 42.3 °F 41 °F 30 in NNE 17 mph 17 mph 93% 0 in
23:52 42.3 °F 41 °F 30 in NE 11 mph 17 mph 93% 0 in
23:57 42.3 °F 41 °F 30 in NE 7.8 mph 17 mph 93% 0 in
Données Historique de Météo Turbie

Mise a jour : 22/05/2018 21:48:14
Généré par Cumulus 1.9.4 (1099)